When you browse on this site, cookies collect data to enhance your experience and personalize the content and advertising you see.
Visit our Privacy Policy to learn more. By continuing to use the site, you agree to this use of cookies and data.
  • în România
  • Lista ţărilor
  • Pe 7 zile
  • Temperatura apei
  • Meteo pe hartă
  • Widget-uri
  • user-avatar
    Intrare

    Meteo pe oră la Bo

    Astăzi, 31 Martie, Marţi

    Timp Temperatura Precipitaţii Vânt Presiune Umiditate
    00:00 +25°C° 0 mm 0 m/s 748 mmHg 86%
    01:00 +25°C° 0 mm 0 m/s 747 mmHg 86%
    02:00 +25°C° 0 mm 0 m/s 747 mmHg 86%
    03:00 +25°C° 0 mm 0 m/s 747 mmHg 87%
    04:00 +24°C° 0 mm 0 m/s 747 mmHg 88%
    05:00 +24°C° 0 mm 0 m/s 747 mmHg 90%
    06:00 +27°C° 0 mm 1 m/s 748 mmHg 83%
    07:00 +29°C° 0 mm 1 m/s 749 mmHg 76%
    08:00 +30°C° 0 mm 1 m/s 749 mmHg 69%
    09:00 +32°C° 0 mm 1 m/s 749 mmHg 61%
    10:00 +34°C° 0 mm 1 m/s 749 mmHg 52%
    11:00 +37°C° 0 mm 1 m/s 749 mmHg 44%
    12:00 +39°C° 0 mm 1 m/s 748 mmHg 40%
    13:00 +40°C° 0 mm 1 m/s 747 mmHg 35%
    14:00 +42°C° 0 mm 1 m/s 746 mmHg 31%
    15:00 +41°C° 0 mm 1 m/s 746 mmHg 33%
    16:00 +40°C° 0 mm 1 m/s 746 mmHg 35%
    17:00 +39°C° 0 mm 1 m/s 746 mmHg 37%
    18:00 +35°C° 0 mm 1 m/s 746 mmHg 48%
    19:00 +32°C° 0 mm 1 m/s 747 mmHg 58%
    20:00 +30°C° 0 mm 2 m/s 747 mmHg 69%
    21:00 +29°C° 0 mm 1 m/s 748 mmHg 71%
    22:00 +29°C° 0 mm 1 m/s 748 mmHg 73%
    23:00 +28°C° 0 mm 1 m/s 748 mmHg 76%

    Mâine, 1 Aprilie, Miercuri

    Timp Temperatura Precipitaţii Vânt Presiune Umiditate
    00:00 +26°C° 0 mm 0 m/s 748 mmHg 78%
    01:00 +26°C° 0 mm 0 m/s 748 mmHg 80%
    02:00 +25°C° 0 mm 0 m/s 748 mmHg 83%
    03:00 +25°C° 0 mm 0 m/s 748 mmHg 84%
    04:00 +25°C° 0 mm 0 m/s 749 mmHg 85%
    05:00 +25°C° 0 mm 0 m/s 749 mmHg 86%
    06:00 +26°C° 0 mm 0 m/s 750 mmHg 80%
    07:00 +28°C° 0 mm 0 m/s 750 mmHg 73%
    08:00 +30°C° 0 mm 0 m/s 750 mmHg 67%
    09:00 +33°C° 0 mm 1 m/s 750 mmHg 61%
    10:00 +34°C° 0 mm 1 m/s 750 mmHg 56%
    11:00 +36°C° 0 mm 1 m/s 749 mmHg 51%
    12:00 +36°C° 0 mm 1 m/s 749 mmHg 50%
    13:00 +34°C° 0 mm 0 m/s 748 mmHg 50%
    14:00 +34°C° 0 mm 0 m/s 748 mmHg 50%
    15:00 +35°C° 0 mm 1 m/s 747 mmHg 52%
    16:00 +35°C° 0 mm 1 m/s 747 mmHg 54%
    17:00 +35°C° 0 mm 2 m/s 747 mmHg 57%
    18:00 +32°C° 0.2 mm 2 m/s 747 mmHg 64%
    19:00 +31°C° 0.2 mm 1 m/s 748 mmHg 71%
    20:00 +29°C° 0.2 mm 1 m/s 749 mmHg 78%
    21:00 +29°C° 0.1 mm 1 m/s 749 mmHg 81%
    22:00 +28°C° 0.1 mm 1 m/s 749 mmHg 83%
    23:00 +26°C° 0.1 mm 0 m/s 750 mmHg 86%

    Poimâine, 2 Aprilie, Joi

    Timp Temperatura Precipitaţii Vânt Presiune Umiditate
    00:00 +26°C° 0 mm 0 m/s 749 mmHg 87%
    01:00 +25°C° 0 mm 0 m/s 749 mmHg 89%
    02:00 +25°C° 0 mm 0 m/s 748 mmHg 90%
    03:00 +25°C° 0 mm 0 m/s 749 mmHg 91%
    04:00 +25°C° 0 mm 0 m/s 749 mmHg 92%
    05:00 +25°C° 0 mm 0 m/s 749 mmHg 92%
    06:00 +26°C° 0 mm 0 m/s 749 mmHg 85%
    07:00 +28°C° 0 mm 0 m/s 750 mmHg 78%
    08:00 +29°C° 0 mm 0 m/s 751 mmHg 71%
    09:00 +32°C° 0 mm 1 m/s 750 mmHg 67%
    10:00 +33°C° 0 mm 1 m/s 750 mmHg 62%
    11:00 +34°C° 0 mm 1 m/s 750 mmHg 58%
    12:00 +34°C° 0.1 mm 1 m/s 749 mmHg 57%
    13:00 +35°C° 0.1 mm 1 m/s 749 mmHg 55%
    14:00 +35°C° 0.1 mm 1 m/s 748 mmHg 54%
    15:00 +35°C° 0.2 mm 1 m/s 748 mmHg 57%
    16:00 +35°C° 0.2 mm 2 m/s 747 mmHg 61%
    17:00 +34°C° 0.2 mm 2 m/s 747 mmHg 65%
    18:00 +32°C° 0 mm 2 m/s 748 mmHg 69%
    19:00 +31°C° 0 mm 2 m/s 749 mmHg 74%
    20:00 +29°C° 0 mm 1 m/s 749 mmHg 79%
    21:00 +29°C° 0 mm 1 m/s 749 mmHg 81%
    22:00 +29°C° 0 mm 1 m/s 749 mmHg 83%
    23:00 +28°C° 0 mm 1 m/s 749 mmHg 85%

    3 Aprilie, Vineri

    Timp Temperatura Precipitaţii Vânt Presiune Umiditate
    00:00 +28°C° 0 mm 1 m/s 749 mmHg 87%
    01:00 +26°C° 0 mm 0 m/s 748 mmHg 89%
    02:00 +25°C° 0 mm 0 m/s 748 mmHg 91%
    03:00 +25°C° 0 mm 0 m/s 748 mmHg 92%
    04:00 +25°C° 0 mm 0 m/s 748 mmHg 93%
    05:00 +25°C° 0 mm 0 m/s 748 mmHg 93%
    06:00 +26°C° 0 mm 0 m/s 748 mmHg 87%
    07:00 +29°C° 0 mm 1 m/s 749 mmHg 80%
    08:00 +31°C° 0 mm 1 m/s 749 mmHg 74%
    09:00 +32°C° 0 mm 1 m/s 749 mmHg 67%
    10:00 +34°C° 0 mm 1 m/s 749 mmHg 60%
    11:00 +35°C° 0 mm 1 m/s 748 mmHg 54%
    12:00 +35°C° 0 mm 1 m/s 748 mmHg 53%
    13:00 +36°C° 0 mm 1 m/s 747 mmHg 53%
    14:00 +36°C° 0 mm 1 m/s 746 mmHg 53%
    15:00 +36°C° 0.2 mm 2 m/s 746 mmHg 56%
    16:00 +35°C° 0.2 mm 2 m/s 746 mmHg 59%
    17:00 +34°C° 0.2 mm 2 m/s 746 mmHg 62%
    18:00 +32°C° 0.1 mm 2 m/s 747 mmHg 67%
    19:00 +31°C° 0.1 mm 2 m/s 747 mmHg 73%
    20:00 +29°C° 0.1 mm 1 m/s 748 mmHg 79%
    21:00 +29°C° 0.1 mm 1 m/s 748 mmHg 81%
    22:00 +28°C° 0.1 mm 1 m/s 748 mmHg 83%
    23:00 +26°C° 0.1 mm 0 m/s 748 mmHg 86%

    4 Aprilie, Sâmbătă

    Timp Temperatura Precipitaţii Vânt Presiune Umiditate
    00:00 +26°C° 0 mm 0 m/s 748 mmHg 87%
    01:00 +26°C° 0 mm 0 m/s 748 mmHg 88%
    02:00 +25°C° 0 mm 0 m/s 748 mmHg 89%
    03:00 +25°C° 0 mm 0 m/s 747 mmHg 90%
    04:00 +25°C° 0 mm 0 m/s 747 mmHg 91%
    05:00 +25°C° 0 mm 0 m/s 747 mmHg 92%
    06:00 +28°C° 0 mm 1 m/s 748 mmHg 85%
    07:00 +29°C° 0 mm 1 m/s 749 mmHg 78%
    08:00 +31°C° 0 mm 1 m/s 749 mmHg 71%
    09:00 +33°C° 0 mm 1 m/s 749 mmHg 63%
    10:00 +35°C° 0 mm 1 m/s 749 mmHg 55%
    11:00 +39°C° 0 mm 1 m/s 749 mmHg 46%
    12:00 +37°C° 0.4 mm 1 m/s 748 mmHg 51%
    13:00 +35°C° 0.4 mm 1 m/s 747 mmHg 55%
    14:00 +34°C° 0.4 mm 1 m/s 747 mmHg 60%
    15:00 +33°C° 1.3 mm 1 m/s 747 mmHg 64%
    16:00 +33°C° 1.3 mm 1 m/s 746 mmHg 69%
    17:00 +32°C° 1.3 mm 2 m/s 746 mmHg 73%
    18:00 +31°C° 0.1 mm 1 m/s 747 mmHg 77%
    19:00 +30°C° 0.1 mm 1 m/s 748 mmHg 81%
    20:00 +29°C° 0.1 mm 1 m/s 748 mmHg 85%
    21:00 +28°C° 0 mm 1 m/s 749 mmHg 86%
    22:00 +28°C° 0 mm 1 m/s 749 mmHg 88%
    23:00 +26°C° 0 mm 0 m/s 749 mmHg 89%

    5 Aprilie, Duminică

    Timp Temperatura Precipitaţii Vânt Presiune Umiditate
    00:00 +26°C° 0 mm 0 m/s 749 mmHg 90%
    01:00 +25°C° 0 mm 0 m/s 748 mmHg 92%
    02:00 +25°C° 0 mm 0 m/s 748 mmHg 93%
    03:00 +25°C° 0 mm 0 m/s 748 mmHg 93%
    04:00 +25°C° 0 mm 0 m/s 748 mmHg 94%
    05:00 +25°C° 0 mm 0 m/s 748 mmHg 94%
    06:00 +26°C° 0 mm 0 m/s 749 mmHg 86%
    07:00 +28°C° 0 mm 0 m/s 749 mmHg 79%
    08:00 +29°C° 0 mm 0 m/s 750 mmHg 71%
    09:00 +31°C° 0 mm 0 m/s 750 mmHg 64%
    10:00 +35°C° 0 mm 1 m/s 749 mmHg 57%
    11:00 +37°C° 0 mm 1 m/s 749 mmHg 50%
    12:00 +37°C° 0.1 mm 1 m/s 748 mmHg 49%
    13:00 +37°C° 0.1 mm 1 m/s 748 mmHg 49%
    14:00 +37°C° 0.1 mm 1 m/s 747 mmHg 48%
    15:00 +36°C° 0.1 mm 1 m/s 747 mmHg 51%
    16:00 +35°C° 0.1 mm 1 m/s 747 mmHg 54%
    17:00 +36°C° 0.1 mm 2 m/s 746 mmHg 57%
    18:00 +34°C° 0.2 mm 2 m/s 747 mmHg 64%
    19:00 +31°C° 0.2 mm 2 m/s 748 mmHg 71%
    20:00 +30°C° 0.2 mm 2 m/s 748 mmHg 78%
    21:00 +29°C° 1.1 mm 1 m/s 748 mmHg 83%
    22:00 +28°C° 1.1 mm 1 m/s 749 mmHg 88%
    23:00 +26°C° 1.1 mm 0 m/s 749 mmHg 93%
    Arată mai mult